Starlink 33564

operational
NORAD ID: 62286 Int'l Des: 2024-237 Owner: SPXS Country: US Constellation: starlink
LEOCIRCULAR

Über Starlink 33564

Beschreibung wird geladen...

Live-Position

3D-Globus wird geladen...

Nächste Überflüge

Höhenverlauf

Altitude vs Time

uPlot chart will show altitude changes over time

Zweizeiliger Elementsatz

1 62286U 24237V 25353.61252207 .00021292 00000-0 78105-3 0 9995
2 62286 43.0015 308.7267 0000820 306.3436 53.7340 15.27579004 58945
Epoch: 19. Dez. 2025 • Age: 11 hours

Aktueller Status

Höhe 482.8 km
Geschwindigkeit 7.63 km/s
Subsatellitenpunkt 24.65°N, 141.24°W
Startdatum 8. Dez. 2024
Alter 1 years
Typ internet

Technische Details

Klassifizierung Payload
Masse 530.00 kg
Trockenmasse 500.00 kg
Gesamtmasse 530.00 kg
Länge 0.30 m
Durchmesser 4.10 m
Spannweite 29.00 m
Form Box + pan
Hersteller SPXS
Bus-Typ Starlink V2MO
Phasenstatus In Orbit
Besitzer/Staat SPXS/US

Große Konstellationen

Loading constellations...